Weather History for Custer, SD

Change the Weather History Date:

Wednesday, April 9, 2014

  Actual Average Record
Temperature  
Mean Temperature 54 °F 37 °F  
Max Temperature 67 °F 48 °F 72 °F (1977)
Min Temperature 40 °F 26 °F 2 °F (1961)
Degree Days  
Heating Degree Days 11 28  
Month to date heating degree days 264 261  
Since 1 July heating degree days 7174 7136  
Cooling Degree Days 0 0  
Month to date cooling degree days 0 0  
Year to date cooling degree days 0 0  
Growing Degree Days 4 (Base 50)    
Moisture  
Dew Point 25 °F    
Average Humidity 42    
Maximum Humidity 65    
Minimum Humidity 18    
Precipitation  
Precipitation 0.02 in 0.07 in 1.25 in (1943)
Month to date precipitation 0.67 0.46  
Year to date precipitation 3.20 2.33  
Sea Level Pressure  
Sea Level Pressure 29.76 in    
Wind  
Wind Speed 10 mph (WNW)    
Max Wind Speed 23 mph    
Max Gust Speed 32 mph    
Visibility 10 miles    
Events      
T = Trace of Precipitation, MM = Missing Value Source: NWS Daily Summary

Daily Weather History Graph

Daily Weather History Graph

Search for Another Location

Airport:

Trip Planner

Search our weather history database for the weather conditions in past years. The results will help you decide how hot, cold, wet, or windy it might be!

Date:

Astronomy

Apr. 09, 2014 Rise Set
Actual Time 6:21 AM MDT 7:30 PM MDT
Civil Twilight 5:52 AM MDT 8:00 PM MDT
Nautical Twilight 5:17 AM MDT 8:35 PM MDT
Astronomical Twilight 4:39 AM MDT 9:13 PM MDT
Moon 2:11 PM MDT (4/9) 3:22 AM MDT (4/9)
Length of Visible Light 14h 08m
Length of Day
13h 09m
Waxing Gibbous, 72% of the Moon is Illuminated
Apr 9
Waxing Gibbous
Apr 15
Full
Apr 22
Last Quarter
Apr 29
New
May 6
First Quarter

Hourly Weather History & Observations

Time (MDT) Temp. Windchill Dew Point Humidity Pressure Visibility Wind Dir Wind Speed Gust Speed Precip Events Conditions
12:53 AM 50.0 °F - 21.9 °F 33% 29.88 in 10.0 mi West 9.2 mph - N/A   Clear
1:53 AM 48.9 °F - 21.9 °F 35% 29.86 in 10.0 mi WNW 8.1 mph - N/A   Clear
2:53 AM 46.0 °F 43.1 °F 21.0 °F 37% 29.85 in 10.0 mi West 5.8 mph - N/A   Clear
3:53 AM 46.0 °F 42.5 °F 21.0 °F 37% 29.83 in 10.0 mi WNW 6.9 mph - N/A   Clear
4:53 AM 42.1 °F 36.6 °F 23.0 °F 47% 29.83 in 10.0 mi West 9.2 mph - N/A   Clear
5:53 AM 43.0 °F 39.5 °F 23.0 °F 45% 29.82 in 10.0 mi WNW 5.8 mph - N/A   Clear
6:53 AM 42.1 °F 39.2 °F 21.9 °F 45% 29.84 in 10.0 mi WNW 4.6 mph - N/A   Clear
7:53 AM 45.0 °F 42.6 °F 25.0 °F 46% 29.83 in 10.0 mi West 4.6 mph - N/A   Clear
8:53 AM 54.0 °F - 24.1 °F 31% 29.80 in 10.0 mi WSW 6.9 mph - N/A   Clear
9:53 AM 57.9 °F - 24.1 °F 27% 29.78 in 10.0 mi WSW 5.8 mph - N/A   Clear
10:53 AM 60.1 °F - 21.9 °F 23% 29.77 in 10.0 mi West 9.2 mph - N/A   Clear
11:53 AM 62.1 °F - 21.9 °F 21% 29.74 in 10.0 mi WSW 10.4 mph 19.6 mph N/A   Clear
12:53 PM 64.9 °F - 24.1 °F 21% 29.69 in 10.0 mi West 11.5 mph 20.7 mph N/A   Clear
1:53 PM 64.9 °F - 21.9 °F 19% 29.67 in 10.0 mi WNW 12.7 mph 23.0 mph N/A   Clear
2:53 PM 64.9 °F - 21.0 °F 19% 29.66 in 10.0 mi West 19.6 mph 31.1 mph N/A   Clear
3:53 PM 64.9 °F - 21.9 °F 19% 29.63 in 10.0 mi West 17.3 mph 28.8 mph N/A   Clear
4:53 PM 66.0 °F - 21.0 °F 18% 29.62 in 10.0 mi West 18.4 mph 29.9 mph N/A   Scattered Clouds
5:53 PM 64.0 °F - 24.1 °F 22% 29.64 in 10.0 mi WNW 12.7 mph 18.4 mph N/A   Scattered Clouds
6:53 PM 59.0 °F - 26.1 °F 28% 29.68 in 10.0 mi North 15.0 mph 23.0 mph N/A   Clear
7:53 PM 48.0 °F - 35.1 °F 61% 29.74 in 10.0 mi North 10.4 mph 18.4 mph N/A   Overcast
8:53 PM 45.0 °F 40.1 °F 34.0 °F 65% 29.74 in 10.0 mi North 9.2 mph 24.2 mph N/A   Scattered Clouds
9:53 PM 45.0 °F 40.6 °F 33.1 °F 63% 29.75 in 10.0 mi NNW 8.1 mph 17.3 mph N/A   Mostly Cloudy
10:53 PM 44.1 °F 38.6 °F 32.0 °F 63% 29.77 in 10.0 mi North 10.4 mph 17.3 mph N/A   Overcast
11:53 PM 43.0 °F 37.7 °F 30.0 °F 60% 29.81 in 10.0 mi NNW 9.2 mph - N/A   Overcast